Location: Newark
(50.5930°N, 3.6720°W)
Time: 04:22:48
(UTC+00:00)

X-37B - Pass Details

Date: 23 September 2020
Orbit: 382 x 392 km, 45.0° (Epoch: 15 October)

Event Time Altitude Azimuth Distance (km) Brightness Sun altitude
Exits shadow 04:55:20 12° 212° (SSW) 1,301 2.8 -11.5°
Maximum altitude 04:55:36 12° 207° (SSW) 1,295 2.8 -11.4°
Drops below altitude 10° 04:56:50 10° 184° (S) 1,399 3.2 -11.2°
Sets 04:59:55 0° 151° (SSE) 2,250 4.7 -10.8°
